Wind_Speed
42 55 61 62 62 57 52 48 44 42 40 36 31 32 32 33 33 30 31 31 30 29 25 24 24 23 23 25 26 26 28 31 34 36 36 35 36 36 37 39 41 45 48 51
46 54 57 59 58 54 50 46 42 39 36 34 31 33 33 34 33 32 31 29 28 27 25 25 25 25 26 27 28 29 32 34 37 37 36 37 38 39 41 44 47 51 54 54
40 47 51 53 52 52 49 46 42 37 35 33 32 34 34 34 34 32 30 29 29 27 26 25 26 27 28 29 30 33 35 37 39 39 39 40 40 43 47 50 53 56 55 50
33 37 43 46 48 48 47 44 41 35 34 33 33 35 34 32 32 32 30 29 27 26 27 28 28 29 30 32 34 35 38 40 42 41 42 44 46 49 53 57 58 52 48 49
29 33 38 42 46 46 43 41 37 34 32 32 33 33 32 30 30 29 28 28 28 28 29 30 30 32 33 35 36 39 42 42 42 43 45 48 52 55 58 53 48 49 50 50
25 30 33 38 41 42 40 36 33 32 30 30 31 31 30 29 27 27 27 28 29 29 30 31 33 35 35 36 39 43 42 42 44 46 49 53 56 51 50 52 51 49 49 47
25 27 28 34 37 37 35 33 31 30 29 27 27 28 28 27 27 27 27 28 29 30 32 34 35 36 37 41 43 42 43 45 47 50 52 48 50 52 52 50 46 42 42 39
21 22 27 29 31 32 31 29 28 26 26 26 25 28 26 26 26 27 28 29 31 32 34 35 37 39 42 43 43 45 48 51 48 45 47 50 52 50 40 35 36 35 29 24
23 20 22 25 26 28 28 26 25 23 24 25 27 27 26 27 28 29 30 32 32 34 36 39 42 43 43 45 47 47 43 42 45 47 47 46 37 31 34 34 32 30 27 22
25 21 19 20 22 24 25 25 24 24 25 25 25 25 26 27 28 30 31 33 35 38 40 43 44 44 44 42 40 41 44 46 46 45 38 34 34 34 36 35 31 29 21 19
26 25 22 19 19 20 20 21 22 23 24 24 24 25 27 30 32 34 36 38 40 42 43 42 41 41 43 43 45 45 44 42 40 34 34 36 38 38 36 32 29 26 23 22
12 19 22 21 22 21 20 22 22 23 25 27 29 30 33 35 36 37 39 41 42 41 40 40 42 45 45 45 42 40 38 34 33 35 36 38 37 34 30 29 29 28 26 24
12 13 14 17 22 24 25 26 28 30 32 33 35 34 35 36 36 37 39 41 42 42 43 45 47 47 43 39 38 35 32 32 33 35 35 32 28 26 25 29 31 31 28 25
13 14 16 17 19 20 22 24 27 30 31 32 34 35 36 39 41 42 44 45 44 44 45 45 43 42 39 36 32 32 34 35 33 31 27 25 26 27 29 32 35 32 29 28
16 17 19 20 21 23 24 26 29 31 34 37 37 39 43 46 47 48 48 46 42 40 38 37 32 29 28 31 34 36 34 30 28 27 27 28 29 30 31 32 33 35 34 31
10 12 16 18 23 27 29 31 33 34 35 37 38 38 40 43 44 43 37 34 35 33 30 31 32 31 33 35 36 32 31 30 30 30 31 32 33 34 32 31 28 31 37 37
10 11 13 12 16 17 16 21 24 24 25 26 27 30 33 35 36 32 28 28 28 29 31 33 35 36 35 32 32 32 32 33 34 34 35 36 36 37 35 32 30 25 33 39
14 15 15 14 17 16 16 18 21 23 23 22 23 25 27 29 29 30 30 31 33 36 38 39 39 37 34 33 34 36 36 37 38 40 41 41 40 40 39 35 32 30 28 34
21 22 23 22 23 23 22 23 25 27 27 28 30 30 32 32 33 35 36 37 38 38 38 38 38 39 39 40 40 41 41 43 43 43 43 41 40 39 39 36 33 33 32 32
24 25 28 28 30 30 27 28 29 30 28 31 33 34 35 36 37 38 38 39 40 40 41 43 43 44 44 45 46 46 46 45 43 42 41 40 39 37 35 35 34 34 33 35
24 25 27 28 30 28 29 31 33 33 34 34 36 37 38 39 41 42 44 45 47 48 48 49 50 50 50 50 50 50 49 47 47 45 43 42 41 39 39 40 40 40 40 38
26 28 28 30 31 32 32 33 33 35 35 36 37 38 39 41 43 43 44 46 49 51 52 53 54 54 53 53 54 53 52 51 51 49 48 47 45 46 45 46 46 46 45 44
32 32 34 33 33 35 37 38 38 37 38 39 41 42 42 41 42 44 46 47 48 48 49 49 49 49 49 49 49 50 52 53 53 53 52 52 51 51 50 49 50 51 52 51
36 37 37 37 36 39 41 41 42 43 44 45 44 45 47 46 45 47 48 49 50 51 52 53 53 53 54 54 53 53 52 52 53 54 54 55 55 56 58 59 59 58 57 56
40 40 40 41 41 44 44 46 48 50 49 49 48 49 49 49 49 49 49 50 51 52 52 53 53 53 54 54 55 55 54 54 53 54 55 56 56 56 55 56 58 59 61 62
42 45 47 47 48 49 50 51 52 54 53 52 52 53 53 53 53 53 54 54 54 54 53 53 53 53 53 54 55 55 55 55 55 54 53 54 53 54 55 55 55 57 57 57
Wind_Direction
192 188 188 192 195 197 201 203 203 204 204 207 207 209 209 211 212 211 213 216 219 226 231 240 249 259 268 275 282 289 291 294 298 301 303 297 288 285 285 286 288 289 290 293
194 190 187 187 190 193 195 198 202 204 205 206 206 209 207 209 211 214 217 219 224 231 237 246 255 263 270 276 284 288 292 295 297 299 297 288 284 285 287 288 290 293 297 297
193 189 186 184 186 190 191 194 198 204 203 204 205 208 207 208 211 215 218 223 229 237 246 253 260 265 272 279 284 288 291 293 296 295 289 284 284 285 287 290 294 296 294 293
177 187 185 181 185 187 188 191 195 197 200 203 206 206 207 207 211 216 221 228 236 244 252 258 263 270 276 280 284 287 289 291 293 288 284 284 286 289 292 294 294 294 295 294
171 180 183 181 181 183 185 189 192 195 198 200 205 207 207 209 213 218 224 232 240 248 255 262 268 273 277 281 285 286 289 291 287 284 285 287 290 291 292 295 295 295 295 294
167 174 177 180 181 179 183 183 187 193 199 203 206 209 211 214 219 225 232 239 246 253 259 265 269 273 277 281 282 284 285 284 283 285 288 289 291 295 295 294 293 293 292 294
155 163 174 177 177 177 177 180 185 191 198 204 210 215 219 222 227 234 241 247 253 258 263 267 270 274 278 279 282 282 281 282 286 289 290 294 296 296 295 293 295 297 296 297
143 159 171 172 174 176 177 180 187 196 204 208 215 223 227 234 240 244 249 253 257 261 264 268 272 274 276 278 279 281 284 287 288 291 294 296 296 293 296 300 300 300 296 299
135 149 163 167 171 176 178 180 187 197 207 214 223 231 236 240 244 247 250 253 258 262 264 266 270 274 277 279 283 285 286 289 291 294 296 294 294 298 299 302 302 296 291 290
133 142 158 166 173 178 180 188 194 204 213 222 228 232 239 242 246 249 252 255 258 261 266 270 273 277 281 284 285 286 288 290 293 293 289 291 295 298 301 302 298 288 284 288
151 153 163 171 180 187 196 202 208 215 221 228 234 238 241 245 249 251 255 257 260 264 268 274 280 282 283 283 283 287 289 289 288 285 288 292 296 300 299 302 296 280 277 280
176 176 178 183 189 197 207 214 219 224 229 233 235 237 243 247 252 255 257 260 265 272 277 280 280 281 283 284 285 282 283 281 282 286 291 296 298 298 297 296 293 277 274 275
199 208 217 217 210 213 219 224 229 233 235 238 245 247 256 259 261 263 266 268 273 277 278 280 281 283 283 280 281 282 281 285 289 291 293 295 297 299 299 291 280 273 271 270
218 221 223 229 233 236 243 248 249 250 252 254 254 260 264 267 268 268 269 272 276 280 280 279 282 282 278 279 282 285 286 287 287 288 290 292 293 296 296 297 275 269 267 267
232 239 244 243 243 245 247 251 253 256 258 258 261 266 268 269 270 270 272 276 276 274 274 279 284 284 281 282 282 283 282 281 282 283 285 287 290 293 298 304 283 265 261 264
226 229 238 247 253 255 256 258 261 262 264 265 264 265 268 269 270 272 275 273 272 274 271 275 277 277 278 280 282 282 283 282 281 282 283 287 291 294 297 300 306 269 260 263
248 241 247 243 248 249 253 259 262 265 268 269 269 266 267 270 273 277 273 270 272 273 273 274 278 282 284 282 281 283 284 284 285 284 284 287 292 295 296 296 299 294 266 263
258 259 257 253 257 258 263 261 267 272 275 274 272 273 274 275 276 277 279 278 277 277 278 279 280 279 278 279 279 279 279 282 284 285 286 289 292 291 291 290 287 288 286 272
270 269 267 265 259 262 261 262 268 271 273 275 275 275 274 274 273 274 275 276 277 278 278 279 278 278 280 280 282 283 284 285 285 285 285 286 287 286 285 285 284 280 279 280
268 269 272 272 271 271 268 266 268 267 266 269 272 273 274 274 274 275 275 274 273 274 275 276 276 277 279 280 281 281 281 281 282 284 285 284 283 281 280 279 281 282 281 279
269 271 274 276 278 278 277 278 276 273 271 269 267 267 270 274 277 278 278 278 277 277 276 277 278 278 278 278 279 280 280 280 281 280 280 282 282 280 280 280 279 279 281 280
269 272 274 275 279 281 280 278 278 278 278 277 276 274 274 275 275 274 275 275 276 277 279 280 280 280 279 278 278 279 280 281 279 278 276 278 279 279 278 279 281 281 280 280
272 274 273 274 276 278 278 278 280 279 278 281 282 282 280 277 276 276 276 276 277 280 281 281 281 280 280 281 283 284 283 282 282 282 280 278 278 278 280 281 280 278 278 277
270 272 274 273 273 274 276 278 279 280 281 283 283 285 286 284 282 279 277 277 277 278 279 280 281 281 282 283 283 282 281 282 282 282 282 282 281 280 279 279 277 277 278 279
271 275 275 273 275 273 276 277 278 279 280 281 281 282 282 282 282 282 280 279 279 279 279 279 280 280 281 281 281 281 282 282 282 282 281 282 282 280 279 278 277 277 277 276
271 271 273 272 273 274 275 276 277 278 279 281 282 282 283 283 284 284 283 283 282 281 281 281 280 279 279 279 280 280 281 282 282 282 282 281 280 280 279 278 278 277 276 276
Height
5692 5700 5709 5721 5734 5748 5761 5772 5779 5786 5793 5798 5803 5807 5811 5815 5820 5824 5828 5831 5834 5838 5843 5844 5845 5846 5847 5847 5847 5847 5845 5843 5841 5838 5834 5831 5828 5824 5821 5817 5813 5809 5805 5800
5691 5700 5710 5721 5733 5746 5756 5767 5776 5784 5790 5796 5800 5804 5807 5811 5816 5820 5824 5828 5832 5835 5837 5840 5841 5842 5842 5842 5841 5840 5838 5836 5833 5830 5827 5823 5819 5815 5811 5808 5804 5799 5794 5789
5694 5703 5712 5721 5733 5744 5753 5763 5773 5781 5787 5792 5797 5801 5804 5808 5812 5816 5821 5824 5827 5830 5833 5835 5836 5836 5836 5835 5834 5833 5831 5828 5825 5821 5817 5814 5810 5806 5802 5798 5794 5789 5783 5779
5697 5706 5715 5723 5734 5744 5752 5761 5769 5776 5783 5789 5793 5797 5800 5804 5809 5813 5817 5820 5823 5826 5827 5829 5829 5829 5829 5828 5827 5825 5822 5819 5816 5812 5808 5805 5801 5796 5792 5787 5782 5778 5772 5768
5702 5710 5718 5726 5734 5743 5752 5760 5768 5774 5780 5785 5790 5795 5798 5802 5806 5810 5813 5816 5818 5820 5822 5822 5823 5822 5822 5821 5819 5816 5813 5810 5806 5802 5799 5795 5790 5786 5780 5775 5770 5767 5762 5757
5708 5715 5722 5730 5738 5744 5752 5759 5766 5773 5778 5783 5788 5793 5796 5799 5803 5806 5809 5811 5813 5814 5816 5816 5815 5815 5814 5812 5810 5806 5803 5800 5796 5793 5789 5784 5779 5774 5769 5764 5759 5754 5750 5746
5713 5720 5727 5734 5740 5746 5752 5759 5765 5771 5776 5783 5786 5790 5793 5797 5799 5802 5804 5805 5807 5808 5808 5808 5807 5806 5805 5803 5799 5796 5793 5790 5787 5783 5778 5773 5768 5763 5758 5753 5748 5744 5740 5736
5720 5727 5732 5737 5743 5750 5754 5760 5765 5771 5776 5781 5783 5785 5790 5793 5795 5797 5798 5799 5800 5800 5800 5799 5798 5796 5794 5792 5789 5786 5783 5779 5776 5772 5768 5763 5757 5752 5748 5744 5740 5736 5733 5729
5725 5732 5737 5741 5746 5752 5756 5760 5765 5770 5774 5777 5780 5784 5786 5788 5790 5791 5792 5792 5792 5792 5791 5789 5788 5786 5784 5781 5779 5776 5772 5769 5766 5762 5757 5752 5748 5745 5742 5738 5734 5731 5727 5724
5729 5735 5740 5745 5749 5753 5756 5760 5764 5767 5770 5773 5776 5778 5781 5782 5783 5784 5784 5784 5783 5782 5781 5779 5777 5775 5773 5771 5768 5766 5763 5759 5755 5751 5747 5745 5741 5738 5734 5731 5727 5724 5721 5718
5731 5736 5742 5746 5750 5753 5757 5759 5762 5764 5767 5769 5771 5774 5775 5775 5775 5775 5776 5775 5774 5773 5771 5770 5768 5766 5764 5761 5758 5755 5752 5748 5745 5742 5739 5736 5733 5730 5726 5723 5720 5718 5715 5713
5736 5737 5740 5744 5747 5750 5753 5756 5758 5760 5763 5764 5765 5768 5766 5766 5766 5767 5766 5765 5764 5764 5762 5760 5758 5756 5754 5751 5747 5745 5742 5739 5736 5734 5731 5727 5724 5721 5718 5716 5714 5712 5709 5708
5737 5739 5741 5743 5746 5747 5749 5751 5753 5754 5755 5757 5757 5760 5758 5757 5758 5758 5757 5756 5755 5755 5752 5750 5747 5745 5742 5740 5737 5735 5732 5730 5728 5725 5722 5719 5716 5714 5711 5708 5706 5704 5702 5701
5737 5738 5739 5741 5742 5744 5746 5747 5748 5749 5749 5751 5751 5750 5749 5748 5748 5748 5747 5745 5745 5744 5741 5738 5736 5734 5732 5730 5728 5725 5723 5721 5719 5715 5713 5711 5709 5707 5704 5699 5696 5696 5695 5694
5733 5735 5737 5737 5739 5739 5741 5741 5741 5742 5742 5742 5744 5741 5738 5737 5736 5736 5736 5736 5734 5732 5730 5728 5726 5723 5722 5721 5719 5717 5714 5712 5710 5707 5705 5704 5702 5699 5695 5691 5686 5686 5686 5686
5728 5729 5730 5732 5733 5734 5734 5734 5734 5734 5733 5733 5731 5731 5727 5725 5725 5726 5727 5725 5723 5722 5721 5719 5717 5716 5715 5713 5710 5707 5705 5703 5702 5700 5698 5696 5694 5691 5687 5683 5678 5676 5676 5677
5726 5725 5725 5726 5726 5726 5729 5728 5727 5727 5726 5725 5724 5723 5721 5719 5717 5717 5717 5715 5715 5714 5712 5711 5709 5707 5705 5703 5701 5699 5697 5695 5693 5691 5689 5687 5685 5681 5678 5675 5672 5668 5667 5667
5722 5722 5721 5721 5720 5721 5722 5721 5720 5719 5719 5719 5718 5716 5714 5712 5711 5710 5709 5707 5706 5704 5702 5701 5699 5697 5696 5694 5692 5690 5688 5686 5684 5681 5679 5676 5674 5671 5668 5666 5663 5661 5659 5657
5717 5717 5716 5716 5713 5715 5714 5713 5713 5712 5713 5711 5709 5708 5706 5704 5703 5702 5700 5698 5697 5695 5693 5691 5690 5688 5687 5685 5682 5680 5678 5676 5673 5670 5667 5665 5663 5661 5658 5656 5654 5652 5650 5648
5710 5710 5710 5709 5708 5707 5707 5705 5704 5702 5702 5701 5700 5699 5697 5695 5694 5692 5690 5688 5686 5684 5682 5680 5678 5677 5675 5673 5671 5669 5667 5664 5662 5659 5656 5654 5652 5650 5648 5646 5644 5642 5640 5638
5702 5701 5700 5699 5698 5700 5698 5697 5695 5694 5695 5690 5688 5686 5685 5683 5682 5681 5679 5678 5676 5673 5671 5668 5665 5663 5662 5660 5658 5656 5654 5651 5649 5647 5645 5642 5640 5638 5636 5634 5632 5630 5629 5627
5693 5692 5691 5689 5688 5689 5688 5686 5686 5685 5682 5679 5677 5675 5673 5671 5669 5666 5663 5662 5661 5660 5658 5655 5652 5650 5648 5646 5644 5642 5640 5637 5635 5633 5631 5630 5627 5625 5624 5622 5620 5617 5616 5614
5684 5684 5682 5681 5679 5676 5674 5673 5673 5671 5668 5667 5667 5665 5662 5659 5655 5653 5650 5647 5645 5643 5641 5639 5637 5634 5631 5629 5628 5628 5626 5623 5620 5618 5616 5615 5612 5610 5609 5607 5606 5604 5602 5600
5673 5671 5671 5669 5668 5664 5661 5660 5658 5656 5654 5652 5649 5648 5648 5646 5644 5641 5637 5634 5631 5629 5626 5623 5621 5619 5616 5613 5610 5609 5608 5606 5605 5603 5600 5598 5597 5595 5592 5590 5588 5587 5586 5583
5662 5659 5657 5657 5656 5652 5651 5648 5646 5644 5640 5638 5636 5635 5632 5630 5628 5625 5622 5620 5617 5614 5611 5608 5606 5603 5600 5597 5593 5591 5589 5587 5586 5585 5583 5581 5579 5577 5575 5572 5569 5568 5566 5565
5649 5645 5643 5642 5641 5639 5638 5635 5632 5629 5627 5624 5621 5618 5616 5614 5612 5609 5606 5604 5601 5598 5595 5593 5590 5587 5585 5582 5578 5576 5573 5570 5568 5566 5564 5562 5560 5558 5555 5554 5552 5548 5547 5545